Wind_Speed
6 10 4 1 5 7 6 2 1 3 3 2 9 8 7 5 4 3 20 32 32 33 32 30 28 25 22 20 20 20 19 20 21 22 21 19 17 16 16 15 16 15 16 16 16 16 17 16 18
2 3 3 1 4 4 4 2 4 1 8 14 18 18 8 3 9 24 38 26 32 33 33 31 29 26 22 19 18 18 18 19 20 20 18 16 15 15 15 14 14 13 13 14 14 15 15 16 17
3 3 2 2 1 2 3 13 14 8 8 8 5 11 5 8 25 38 25 30 32 32 32 31 29 25 20 17 17 17 17 17 17 17 15 14 14 14 14 13 14 13 12 12 12 13 14 15 17
4 4 1 3 4 7 8 11 14 3 10 15 13 6 9 15 29 24 28 28 31 30 30 29 27 24 19 16 16 16 15 15 14 13 13 12 13 12 12 11 11 11 11 11 11 12 12 12 15
4 4 1 2 2 11 12 26 29 6 9 13 16 9 19 20 21 26 25 28 30 29 28 27 26 23 20 18 17 16 15 13 13 12 10 10 10 10 9 8 7 8 9 9 10 10 13 12 12
1 3 1 2 5 2 6 14 18 13 17 18 16 17 8 24 27 27 22 23 27 28 27 26 25 23 21 19 18 16 14 13 11 10 9 7 7 7 7 5 4 5 8 9 9 9 10 12 13
4 2 4 2 2 15 7 9 18 20 17 5 15 8 19 32 25 25 21 21 24 23 24 24 24 23 21 19 17 16 14 13 12 10 8 8 7 7 6 5 4 7 8 9 10 10 11 11 12
5 5 3 1 5 3 6 10 15 15 5 17 26 7 24 32 32 30 24 26 25 23 23 22 22 22 21 20 17 16 14 14 13 12 10 9 9 9 7 6 9 9 9 10 11 11 11 12 13
11 2 1 4 2 4 11 5 3 8 14 9 10 23 35 36 36 32 30 29 25 22 19 21 22 21 20 18 18 16 15 14 14 13 12 11 11 10 12 12 9 14 11 11 11 10 11 11 12
4 3 2 4 4 7 15 10 13 7 12 17 23 24 30 33 37 37 35 32 26 22 20 21 24 22 19 17 16 13 11 12 13 13 11 11 10 7 7 13 10 11 13 13 10 12 13 12 12
5 5 5 1 3 18 12 5 6 17 3 29 31 36 31 30 30 35 35 30 25 19 15 10 22 20 17 16 15 13 6 11 11 10 9 8 7 8 9 7 12 10 10 10 9 11 11 10 9
0 9 9 8 9 3 11 14 8 11 13 30 34 37 36 32 31 30 33 30 25 20 13 13 16 18 13 17 17 9 4 9 10 10 8 8 7 7 7 9 9 9 8 9 10 11 11 10 11
2 4 14 16 14 12 4 15 10 7 28 33 32 34 36 32 30 28 30 26 22 19 16 18 18 18 13 13 12 9 9 9 9 9 9 9 7 5 9 9 9 8 7 4 9 9 13 12 13
9 4 4 12 15 16 5 9 14 18 35 34 36 35 34 31 29 31 33 28 23 19 20 21 19 18 14 12 11 12 11 13 9 8 9 11 9 8 9 9 9 10 6 7 7 7 13 14 14
21 4 7 9 5 7 5 2 6 31 37 34 32 34 31 29 29 29 33 33 27 23 23 21 21 21 17 17 16 16 15 13 15 10 10 11 11 8 9 9 10 9 6 6 8 12 13 15 16
6 3 3 7 9 5 7 4 5 30 31 29 28 30 33 23 26 15 16 33 30 27 27 22 19 21 19 21 16 19 20 17 12 11 11 7 12 12 11 10 10 9 7 8 10 10 15 15 15
6 3 6 5 7 5 4 0 9 10 23 19 21 15 11 14 14 15 5 12 33 28 26 20 22 18 14 18 22 17 25 23 20 15 13 12 14 14 13 13 12 14 13 10 11 12 12 15 14
2 4 5 4 3 11 10 5 9 23 32 29 30 17 19 23 15 26 13 19 24 18 25 24 25 22 19 17 19 18 18 25 24 20 16 13 14 16 14 13 13 15 14 16 12 12 12 13 12
8 8 6 2 6 9 6 5 4 8 24 16 17 12 15 21 16 22 19 27 18 22 24 26 32 30 25 23 24 22 20 20 23 21 19 19 18 18 15 16 16 17 17 15 12 10 13 11 12
11 7 6 3 7 11 3 2 2 3 10 14 12 13 21 17 22 33 25 32 16 19 25 16 33 32 29 26 25 24 20 18 17 21 22 22 23 21 21 21 19 19 18 15 15 13 11 13 13
11 6 4 4 4 6 8 6 5 2 2 12 10 13 8 15 21 29 29 36 22 26 29 20 23 31 30 29 24 23 20 21 18 22 26 26 29 28 26 23 21 20 19 18 17 15 15 14 15
6 2 5 2 4 5 2 4 4 6 5 8 8 8 5 8 10 9 25 33 27 27 22 24 24 25 26 26 25 23 20 20 23 21 24 26 28 31 30 28 22 23 23 21 20 17 16 14 17
7 5 1 1 4 4 1 5 2 6 6 7 11 2 2 8 10 14 8 12 18 23 21 17 21 18 19 15 19 18 16 18 23 25 27 28 28 29 33 32 24 22 23 23 21 21 20 18 18
3 3 7 5 4 4 6 4 6 2 5 7 11 15 8 12 10 8 7 3 7 22 20 16 14 10 15 13 9 13 14 17 21 27 31 32 31 34 27 35 30 26 22 22 23 23 24 21 20
7 7 4 5 5 3 6 5 7 7 7 6 12 13 15 13 11 9 6 5 7 12 18 17 15 11 9 9 9 10 14 20 28 31 31 35 34 31 36 39 38 27 24 18 18 19 23 26 26
4 8 6 5 2 3 8 2 5 7 18 6 9 4 19 14 9 8 10 9 12 13 13 14 13 8 7 8 6 6 13 21 21 17 18 11 12 21 26 31 27 19 19 14 14 19 23 24 26
6 3 8 7 3 4 3 5 10 10 6 4 5 15 24 18 11 10 10 9 8 7 7 5 4 5 4 1 4 6 14 22 24 16 16 9 1 4 9 17 15 22 17 14 16 17 20 23 23
8 4 1 3 5 2 3 4 6 6 12 7 7 25 25 18 17 13 10 9 9 7 6 4 2 4 6 7 8 6 12 17 21 21 20 11 7 7 3 11 16 24 14 16 16 17 19 21 23
4 4 6 6 3 5 4 6 9 12 12 5 11 10 27 24 22 18 14 11 10 5 2 1 2 4 5 7 10 10 12 15 14 14 17 16 8 7 7 9 4 12 14 12 14 16 19 18 20
5 2 6 4 2 3 4 6 9 15 15 13 17 10 26 29 26 20 15 16 12 5 2 1 1 2 4 5 8 8 12 14 12 12 9 8 5 6 7 8 8 6 9 13 14 14 17 18 16
Wind_Direction
141 112 105 237 51 53 314 4 126 355 73 302 120 151 142 108 159 185 149 160 160 160 160 156 151 144 134 129 124 121 121 124 129 133 131 128 125 118 112 108 106 110 112 114 117 117 118 120 122
127 102 70 299 95 132 257 217 156 234 131 121 94 108 118 110 121 138 150 161 162 162 163 162 158 149 137 132 131 128 125 127 132 135 135 133 127 120 116 113 110 112 117 120 120 121 120 124 128
119 67 281 43 190 192 75 42 20 154 148 95 97 85 81 106 139 143 153 158 162 165 167 167 165 160 151 143 140 138 136 132 134 138 139 136 132 127 122 117 115 118 122 127 128 126 126 129 136
149 198 41 61 312 29 93 65 3 270 108 106 100 82 93 144 143 148 149 159 164 164 168 172 172 171 168 162 156 148 144 142 143 141 142 140 137 133 128 122 116 124 135 137 133 131 134 141 150
178 260 295 13 317 85 112 141 187 207 93 119 116 110 128 145 142 143 152 162 166 164 168 173 176 176 176 172 168 161 156 153 151 154 154 153 148 145 145 139 132 139 148 156 155 148 148 148 158
232 250 51 292 321 90 134 158 160 148 118 105 103 107 128 167 149 150 154 163 171 164 166 170 174 175 174 173 172 173 172 170 167 167 167 172 174 168 166 171 166 162 168 176 178 172 168 165 155
195 17 241 145 183 107 132 156 144 137 150 133 125 114 141 156 157 156 158 154 160 164 168 170 172 175 175 178 181 185 187 187 188 188 190 193 195 197 204 215 228 200 198 194 195 192 184 182 181
226 148 277 241 179 224 133 153 139 137 117 138 133 158 160 167 162 164 165 152 154 160 171 180 181 183 184 186 191 194 198 201 203 204 209 211 212 216 217 251 240 224 213 210 214 210 208 204 210
232 236 143 188 133 171 170 157 90 103 137 158 199 160 162 161 164 171 170 164 164 167 176 183 187 190 193 194 196 198 205 208 212 216 219 219 221 219 237 269 274 232 224 215 218 221 219 223 229
191 100 240 200 134 171 186 136 137 131 123 117 120 149 156 163 168 177 175 172 172 176 183 194 192 188 194 198 203 200 212 220 222 226 224 228 232 238 248 278 247 221 225 220 225 231 234 232 232
218 164 179 49 125 151 182 95 120 128 110 149 146 155 164 161 172 180 182 177 177 177 174 174 197 196 201 207 199 182 219 218 220 224 221 227 241 249 238 277 238 221 216 217 216 232 230 227 235
217 162 163 178 167 173 165 154 150 165 172 162 159 164 166 171 177 186 186 184 177 180 181 178 178 186 187 206 189 187 193 185 192 188 205 222 253 258 249 211 216 217 221 229 223 222 221 216 212
162 244 182 194 188 206 222 165 192 195 161 163 162 166 174 177 182 186 190 186 186 190 191 192 181 184 185 182 191 192 205 206 198 208 229 244 275 274 231 214 230 229 222 241 226 222 214 212 215
297 325 181 211 227 205 183 144 126 166 157 163 168 173 178 185 187 185 188 192 200 204 198 199 191 194 197 196 200 204 224 228 228 245 245 250 262 276 248 234 231 241 247 256 239 228 221 229 230
341 270 328 299 206 169 156 43 138 162 159 167 173 175 182 188 196 204 205 199 203 201 199 197 198 197 209 202 210 220 226 231 232 268 259 245 241 255 254 247 241 256 266 264 253 235 233 226 231
332 28 26 291 158 190 111 226 270 164 161 172 173 181 186 188 198 180 204 210 201 195 205 206 201 211 206 211 228 238 240 238 230 241 241 238 234 245 254 253 255 256 274 258 256 251 243 235 234
1 287 235 283 217 148 90 55 353 40 168 133 137 142 216 190 190 168 31 229 197 193 195 208 211 220 218 221 223 237 244 240 239 255 240 251 249 247 258 255 264 253 244 264 259 249 251 239 237
310 276 238 176 274 72 93 92 61 70 114 129 139 168 209 223 192 189 178 194 211 211 206 208 212 224 227 223 226 226 232 237 243 233 235 250 253 249 249 263 255 239 237 246 255 254 253 244 243
267 273 250 277 148 72 82 68 21 60 112 137 158 189 203 222 211 188 182 172 208 226 214 238 222 216 225 226 223 226 220 222 226 232 240 242 256 255 252 253 244 245 236 239 247 252 244 241 221
278 226 274 218 128 111 175 105 285 81 125 142 196 203 193 210 213 198 193 182 209 219 217 223 206 215 227 230 234 237 247 247 254 240 239 244 248 254 251 244 248 242 238 227 230 239 250 240 234
268 211 259 176 109 44 95 353 342 285 90 175 119 106 169 203 213 199 202 204 216 208 204 198 202 220 225 233 238 237 246 248 244 238 242 241 251 249 251 250 244 244 241 227 230 240 245 249 247
230 202 277 183 110 179 90 215 308 342 333 337 67 64 101 143 129 168 212 220 233 212 217 198 206 220 223 235 243 244 263 256 257 261 246 248 252 258 255 257 254 246 242 237 235 234 238 247 245
230 169 228 334 112 93 26 102 144 289 340 351 301 75 240 131 119 85 117 222 226 227 227 223 224 219 216 232 248 260 270 286 276 267 264 261 256 249 248 251 255 251 241 234 235 235 235 241 242
189 105 37 53 83 16 309 111 319 347 287 307 328 354 154 144 117 120 97 70 197 226 224 222 216 206 232 253 259 281 288 283 283 280 273 265 256 248 269 250 243 245 239 239 242 242 242 241 246
74 59 1 351 24 203 270 65 227 231 224 218 293 316 165 136 116 109 113 107 130 177 207 209 196 207 222 237 259 284 304 307 298 291 286 274 257 246 235 248 242 228 228 225 245 245 248 247 249
184 146 157 212 126 244 345 283 251 273 280 357 295 198 158 142 121 123 131 124 127 136 144 159 184 207 238 256 274 328 358 4 336 338 337 322 252 237 234 231 235 239 234 231 238 249 254 256 251
246 205 185 116 56 85 293 304 300 279 301 309 262 161 163 153 136 116 143 160 168 152 146 158 200 245 251 334 9 16 26 20 19 9 18 27 49 209 231 238 225 251 251 241 248 250 258 258 252
157 178 90 16 140 162 248 264 233 287 263 309 342 169 166 159 149 139 130 138 142 156 168 167 147 93 51 53 15 341 339 356 14 25 31 40 85 102 106 218 223 230 247 259 258 261 266 265 261
351 314 63 106 86 146 173 253 216 223 225 226 277 214 174 167 159 145 145 156 160 161 167 309 70 27 351 5 4 2 351 358 3 10 28 37 35 20 29 45 198 214 283 287 279 274 272 267 266
177 29 114 122 196 227 173 260 203 202 218 210 247 276 183 167 156 154 160 160 161 174 198 56 81 323 337 1 350 349 346 352 5 6 352 347 343 336 332 337 12 329 314 309 288 278 271 263 263
Height
1523 1524 1521 1521 1536 1541 1541 1533 1513 1512 1514 1513 1513 1514 1517 1518 1521 1535 1527 1533 1538 1542 1547 1551 1554 1556 1558 1560 1561 1563 1564 1565 1566 1568 1569 1570 1571 1571 1572 1573 1574 1574 1574 1575 1576 1577 1577 1578 1578
1522 1521 1520 1519 1537 1551 1546 1527 1526 1515 1515 1516 1514 1516 1518 1524 1521 1523 1528 1535 1539 1543 1547 1552 1555 1557 1559 1561 1563 1564 1565 1567 1568 1569 1570 1571 1572 1572 1573 1574 1575 1576 1576 1577 1578 1578 1579 1580 1581
1524 1522 1524 1523 1529 1539 1538 1534 1533 1520 1520 1517 1517 1516 1517 1523 1524 1526 1530 1534 1540 1544 1548 1552 1555 1558 1560 1562 1564 1565 1567 1569 1570 1571 1571 1571 1572 1573 1574 1575 1576 1577 1577 1578 1579 1580 1580 1581 1582
1526 1525 1525 1531 1532 1518 1525 1532 1534 1525 1519 1519 1519 1519 1521 1521 1524 1528 1532 1536 1540 1545 1550 1554 1556 1559 1562 1564 1565 1567 1568 1570 1571 1571 1572 1572 1572 1573 1575 1576 1576 1577 1578 1579 1580 1581 1582 1582 1582
1526 1522 1524 1530 1528 1523 1524 1517 1521 1524 1521 1521 1519 1522 1525 1529 1528 1530 1535 1538 1541 1545 1550 1554 1557 1559 1562 1565 1566 1568 1568 1570 1571 1572 1573 1573 1573 1573 1575 1576 1577 1577 1578 1580 1581 1581 1582 1583 1583
1525 1525 1535 1541 1528 1521 1522 1522 1522 1521 1521 1525 1524 1523 1529 1528 1530 1534 1536 1539 1544 1545 1550 1554 1557 1559 1562 1565 1567 1568 1569 1570 1572 1573 1573 1574 1574 1574 1574 1576 1577 1578 1578 1579 1580 1581 1581 1583 1584
1526 1526 1527 1526 1527 1518 1519 1521 1519 1518 1520 1521 1523 1525 1532 1532 1533 1535 1539 1542 1545 1548 1551 1554 1556 1559 1562 1564 1566 1568 1569 1570 1571 1573 1573 1573 1574 1574 1574 1574 1576 1577 1577 1577 1578 1580 1580 1582 1583
1521 1523 1520 1522 1526 1524 1512 1516 1517 1516 1518 1520 1522 1525 1530 1531 1535 1537 1541 1543 1546 1548 1551 1553 1556 1558 1560 1563 1565 1567 1568 1570 1570 1571 1571 1572 1573 1573 1573 1573 1574 1575 1576 1576 1577 1578 1579 1580 1581
1518 1526 1531 1519 1517 1517 1512 1513 1517 1516 1518 1519 1519 1522 1526 1530 1535 1538 1541 1544 1546 1550 1552 1553 1555 1557 1560 1562 1564 1565 1566 1568 1569 1569 1569 1570 1570 1572 1572 1572 1571 1572 1573 1574 1575 1576 1577 1578 1579
1511 1521 1516 1506 1507 1512 1509 1509 1513 1517 1518 1519 1520 1526 1531 1532 1533 1535 1540 1542 1546 1548 1550 1552 1554 1556 1559 1561 1562 1564 1565 1566 1567 1567 1568 1569 1570 1570 1571 1569 1569 1569 1570 1571 1572 1573 1574 1575 1577
1505 1514 1505 1503 1503 1505 1508 1511 1512 1515 1519 1515 1520 1525 1530 1533 1533 1534 1538 1538 1540 1546 1549 1551 1554 1556 1558 1560 1561 1563 1563 1563 1564 1566 1566 1567 1567 1567 1567 1567 1567 1567 1568 1569 1569 1570 1571 1572 1574
1506 1503 1501 1502 1501 1502 1504 1508 1511 1510 1512 1516 1518 1521 1526 1529 1531 1534 1537 1540 1543 1545 1548 1551 1553 1556 1557 1558 1560 1561 1561 1562 1563 1564 1564 1564 1565 1565 1563 1565 1565 1565 1566 1567 1567 1568 1569 1570 1571
1502 1501 1502 1500 1501 1501 1502 1503 1508 1507 1511 1517 1520 1524 1524 1527 1529 1531 1535 1540 1542 1544 1547 1550 1553 1555 1556 1558 1559 1558 1559 1561 1562 1563 1562 1562 1563 1562 1563 1564 1564 1564 1564 1565 1564 1565 1567 1568 1570
1501 1497 1501 1501 1500 1500 1503 1504 1504 1511 1510 1517 1519 1522 1526 1526 1530 1533 1535 1537 1539 1542 1544 1547 1550 1553 1554 1555 1557 1557 1557 1559 1560 1561 1560 1560 1560 1561 1561 1562 1563 1563 1562 1563 1562 1563 1564 1566 1567
1501 1500 1497 1496 1499 1499 1499 1506 1505 1507 1511 1515 1520 1523 1524 1521 1528 1531 1535 1532 1535 1536 1539 1541 1547 1551 1553 1553 1555 1555 1556 1556 1557 1557 1558 1558 1559 1559 1559 1560 1559 1560 1560 1561 1561 1561 1562 1563 1565
1506 1504 1518 1498 1496 1496 1500 1520 1503 1509 1512 1516 1519 1520 1518 1523 1527 1534 1541 1535 1536 1535 1535 1539 1543 1547 1550 1552 1553 1554 1553 1553 1555 1556 1556 1556 1556 1556 1556 1556 1556 1557 1558 1559 1560 1559 1560 1560 1561
1516 1527 1516 1508 1494 1495 1502 1516 1513 1511 1514 1519 1519 1522 1522 1522 1533 1531 1538 1539 1536 1534 1534 1538 1543 1543 1548 1550 1552 1552 1551 1551 1553 1554 1553 1552 1552 1553 1553 1553 1554 1555 1556 1556 1557 1558 1557 1558 1559
1529 1520 1506 1511 1499 1504 1511 1518 1511 1511 1513 1516 1516 1514 1516 1524 1527 1524 1528 1537 1537 1531 1535 1536 1540 1543 1545 1547 1549 1550 1550 1551 1551 1550 1549 1549 1549 1550 1550 1550 1551 1552 1554 1555 1555 1555 1555 1555 1556
1517 1520 1512 1502 1503 1511 1518 1517 1516 1517 1515 1518 1517 1518 1520 1521 1526 1530 1530 1537 1534 1530 1530 1537 1535 1539 1543 1544 1546 1547 1548 1548 1547 1546 1546 1546 1547 1546 1547 1547 1547 1548 1549 1552 1553 1553 1553 1553 1554
1514 1511 1510 1502 1502 1506 1518 1519 1514 1515 1518 1518 1517 1517 1520 1523 1525 1527 1528 1527 1525 1527 1529 1530 1532 1535 1539 1541 1542 1545 1546 1546 1546 1546 1544 1543 1544 1544 1544 1544 1545 1545 1545 1547 1549 1550 1550 1550 1552
1512 1508 1507 1509 1509 1510 1514 1529 1521 1513 1514 1515 1514 1513 1517 1521 1522 1522 1524 1522 1527 1526 1529 1528 1528 1533 1537 1540 1542 1543 1543 1543 1542 1540 1540 1539 1541 1543 1543 1542 1543 1543 1543 1543 1545 1546 1547 1547 1549
1513 1495 1498 1499 1515 1540 1515 1560 1531 1522 1520 1517 1512 1514 1517 1519 1521 1520 1520 1521 1522 1524 1527 1529 1532 1535 1536 1539 1540 1541 1540 1539 1538 1537 1537 1536 1538 1538 1538 1539 1540 1541 1540 1540 1541 1542 1543 1544 1545
1501 1492 1494 1496 1516 1522 1524 1544 1541 1529 1522 1522 1515 1513 1516 1517 1518 1518 1519 1520 1520 1522 1524 1527 1529 1531 1535 1538 1539 1540 1538 1534 1534 1531 1531 1532 1531 1531 1533 1535 1537 1539 1537 1537 1538 1538 1539 1540 1541
1483 1492 1505 1513 1525 1550 1540 1540 1549 1539 1531 1522 1516 1515 1515 1519 1518 1518 1518 1518 1519 1521 1524 1526 1529 1533 1535 1537 1537 1537 1534 1531 1527 1524 1522 1522 1522 1520 1518 1528 1530 1532 1533 1533 1534 1535 1536 1536 1537
1490 1516 1553 1550 1556 1563 1538 1538 1537 1521 1517 1517 1517 1516 1519 1518 1518 1518 1519 1519 1519 1522 1524 1528 1531 1533 1533 1535 1535 1534 1531 1527 1520 1512 1510 1507 1509 1512 1517 1514 1525 1526 1527 1526 1529 1530 1531 1532 1533
1496 1513 1549 1558 1562 1561 1539 1541 1525 1510 1505 1505 1510 1515 1518 1518 1518 1518 1520 1522 1522 1523 1524 1527 1529 1531 1531 1531 1532 1532 1529 1522 1513 1508 1502 1498 1498 1504 1510 1511 1500 1519 1523 1521 1522 1525 1526 1527 1528
1496 1511 1502 1531 1536 1557 1561 1543 1518 1501 1502 1505 1510 1514 1516 1516 1518 1519 1522 1525 1525 1525 1526 1528 1529 1529 1530 1530 1528 1527 1525 1520 1514 1508 1503 1498 1499 1502 1506 1507 1502 1514 1517 1517 1518 1519 1520 1522 1524
1486 1484 1514 1526 1557 1559 1559 1553 1543 1518 1511 1510 1508 1511 1513 1514 1517 1519 1522 1525 1527 1528 1528 1529 1528 1528 1527 1528 1527 1525 1522 1519 1516 1512 1508 1504 1504 1505 1507 1507 1509 1513 1515 1511 1514 1515 1516 1518 1519
1494 1499 1509 1520 1533 1557 1574 1552 1505 1504 1502 1510 1509 1513 1507 1511 1515 1518 1521 1525 1527 1529 1529 1529 1527 1526 1526 1526 1526 1524 1522 1520 1517 1514 1512 1509 1508 1507 1508 1509 1505 1510 1511 1511 1511 1512 1514 1514 1514
1483 1489 1508 1528 1536 1546 1542 1530 1488 1490 1495 1503 1504 1510 1507 1510 1514 1517 1520 1522 1525 1528 1530 1530 1528 1527 1527 1526 1525 1524 1522 1519 1517 1513 1511 1510 1510 1510 1508 1507 1506 1508 1508 1507 1508 1509 1510 1511 1511